Miscellaneous Local Product
Issued by NWS Hastings, NE

Home | Current Version | Previous Version | Text Only | Print | Product List | Glossary On
Versions: 1 2 3 4 5 6 7 8 9 10 11 12 13 14 15 16 17 18 19 20 21 22 23 24 25 26 27 28 29 30 31 32 33 34 35 36 37 38 39 40 41 42 43 44 45 46 47 48 49 50
000
AXUS43 KGID 261002
MISGRI

GID CWA HOURLY WEATHER ROUNDUP
NATIONAL WEATHER SERVICE HASTINGS NE
500 AM CDT TUE MAY 26 2015

NOTE: "FAIR" INDICATES FEW OR NO CLOUDS BELOW 12,000 FEET WITH NO
SIGNIFICANT WEATHER AND/OR OBSTRUCTIONS TO VISIBILITY.

...SOUTH CENTRAL NEBRASKA...

CITY           SKY/WX    TMP DP  RH WIND       PRES   REMARKS
GRAND ISLAND   CLOUDY    58  55  90 N10       29.77S
HASTINGS       CLOUDY    58  56  93 NW13      29.77R
KEARNEY        CLOUDY    59  55  88 NW12      29.81S
ORD            CLOUDY    58  55  90 N8        29.81R
YORK           CLOUDY    57  55  94 CALM      29.76R
AURORA         CLOUDY    57  57 100 N12       29.77S
LEXINGTON      PTCLDY    55  54  95 NW7       29.84S
HOLDREGE       CLOUDY    56  54  90 NW13      29.82S
HEBRON         CLOUDY    59  55  86 S7        29.76S

...NEBRASKA PANHANDLE...

CITY           SKY/WX    TMP DP  RH WIND       PRES   REMARKS
CHADRON        CLOUDY    54  53  97 N5        29.95R
ALLIANCE       CLOUDY    51  50  96 W5        29.95R
SCOTTSBLUFF    CLOUDY    47  46  97 W5        29.97R
SIDNEY         PTCLDY    43  42  97 NW7       29.97S

...WESTERN AND NORTH CENTRAL NEBRASKA...

CITY           SKY/WX    TMP DP  RH WIND       PRES   REMARKS
VALENTINE      CLOUDY    52  48  86 N7        29.91S
AINSWORTH      CLOUDY    51  50  97 NW8       29.90S
ONEILL         CLOUDY    55  55  98 N12       29.83S
BROKEN BOW     CLOUDY    58  54  86 N16       29.84R
IMPERIAL       MOCLDY    51  48  89 NW6       29.92S
NORTH PLATTE   CLOUDY    52  51  97 W8        29.89S
MCCOOK         CLOUDY    52  50  93 NW8       29.88S

...EASTERN NEBRASKA...

CITY           SKY/WX    TMP DP  RH WIND       PRES   REMARKS
NORFOLK        CLOUDY    57  55  93 W5        29.78R
SO SIOUX CITY  CLOUDY    62  59  90 W3        29.76R FOG
TEKAMAH        CLOUDY    62  60  93 SE8       29.77S
COLUMBUS       CLOUDY   N/A N/A N/A MISG        N/A
ALBION         HVY RAIN  57  55  92 N9        29.79F
OMAHA EPPLEY   LGT RAIN  62  59  90 S12       29.77F
OFFUTT AFB     CLOUDY    61  59  93 SE6       29.75F
MILLARD        CLOUDY    63  58  84 S7        29.78S
LINCOLN        CLOUDY    62  57  83 SE12      29.76F
NEBRASKA CITY  DRIZZLE   60  60 100 S7        29.76F
BEATRICE       CLOUDY    59  57  92 S9        29.75F
FALLS CITY     LGT RAIN  60  59  96 W8        29.75F

...NORTHERN KANSAS...

CITY           SKY/WX    TMP DP  RH WIND       PRES   REMARKS
GOODLAND       CLEAR     45  44  97 W3        29.94R
HILL CITY      PTCLDY    55  51  86 NW9       29.87R
NORTON         SUNNY     54  48  82 W10       29.85S
PHILLIPSBURG   CLEAR     57  55  94 W10       29.82S
SMITH CENTER   CLEAR     54  52  94 W6        29.80S
HAYS           MOCLDY    55  46  71 W9        29.85S
RUSSELL        MOCLDY    57  53  86 W13       29.81S
CONCORDIA      CLOUDY    58  55  90 S7        29.77F
SALINA         CLOUDY    59  56  89 SW7       29.79F
TOPEKA         CLOUDY    60  59  96 SW3       29.78R



USA.gov is the U.S. government's official web portal to all federal, state and local government web resources and services.